Theta_e
346 346 346 344 341 337 333 333 332 333 335 336 337 337 336 336 336 336 334 330 332 335 335 337 338 340 340 339 338 333 327 327 336 334 337 335 335 333 325 331 330 323 320
346 346 346 345 342 341 336 334 333 333 335 336 338 338 338 336 334 335 338 332 332 338 332 336 339 337 339 339 333 326 325 327 329 337 332 335 332 328 322 328 320 321 325
345 346 345 345 344 341 340 337 334 333 333 336 338 338 337 338 338 338 335 336 333 334 335 336 338 339 331 328 327 330 329 337 336 333 335 336 326 329 321 324 329 321 333
345 345 345 345 344 343 342 339 335 334 334 336 338 339 338 338 337 339 339 342 340 336 334 330 338 334 330 330 330 335 332 336 327 332 333 339 334 324 321 326 337 329 323
344 344 344 345 344 343 343 342 340 338 340 340 339 337 336 337 337 338 339 339 341 339 338 329 332 331 332 333 331 336 338 343 338 339 333 328 331 327 323 330 324 327 334
343 343 344 343 342 342 343 343 343 343 342 342 341 339 337 337 339 339 340 341 339 340 339 332 330 332 332 336 340 342 342 344 343 341 340 337 333 331 323 334 332 322 328
339 340 341 341 340 340 341 341 341 342 342 341 342 340 338 337 337 339 337 341 341 339 339 341 331 334 334 337 341 343 343 343 342 341 341 340 338 335 327 326 323 325 327
336 337 338 338 337 338 339 339 340 341 341 340 340 339 338 337 339 340 338 337 338 339 340 339 339 333 334 335 340 341 342 342 340 340 341 341 338 330 325 323 329 324 324
336 336 336 335 335 336 336 337 338 338 338 337 337 338 338 338 338 339 337 336 336 336 337 339 339 336 332 332 334 339 342 342 342 340 341 341 339 331 330 324 323 331 327
337 335 334 334 334 333 333 335 336 336 336 335 335 335 338 338 338 336 336 336 337 337 337 338 340 340 334 332 331 338 339 341 344 340 341 342 342 338 329 330 330 325 326
339 337 336 335 335 334 333 332 333 334 335 334 334 334 336 336 335 336 334 336 340 338 339 338 339 340 339 335 332 333 338 342 345 342 343 343 343 341 334 326 331 328 323
346 343 341 339 337 335 334 333 332 332 332 333 335 334 333 335 340 339 336 339 339 337 336 338 338 339 340 340 335 331 336 342 344 343 342 345 344 343 341 333 326 329 325
349 348 348 345 345 345 340 337 343 340 335 335 339 338 342 337 340 346 344 345 344 343 334 335 336 337 339 339 339 333 333 338 340 345 345 344 344 344 344 342 334 329 333
350 351 350 348 348 345 342 341 345 345 344 341 345 343 342 340 344 345 345 344 343 343 336 336 336 337 338 337 339 335 334 335 337 341 343 344 344 345 344 342 339 335 331
350 351 351 349 347 346 347 347 345 344 344 343 343 344 343 343 343 344 344 344 346 343 344 338 341 344 342 337 341 341 341 341 339 338 342 343 344 344 345 344 340 338 336
349 350 351 349 348 347 347 346 345 343 343 343 343 342 342 342 342 342 342 345 344 344 343 337 338 342 337 339 342 341 341 343 343 338 342 344 344 343 344 343 341 341 339
349 349 350 349 350 349 347 347 344 343 344 344 343 343 343 341 341 343 341 341 339 339 339 338 339 340 339 338 337 341 342 342 343 341 343 343 342 342 343 342 342 342 338
349 349 350 349 350 350 349 348 348 343 339 341 344 344 343 343 343 340 342 339 341 340 338 340 338 338 339 339 337 344 343 343 341 341 344 342 344 345 344 342 342 342 342
349 349 350 351 351 352 349 348 347 337 338 342 343 343 344 342 342 343 340 339 338 337 337 340 339 341 341 339 338 342 344 344 343 344 344 344 342 343 344 345 344 341 342
349 350 351 352 353 352 349 349 344 336 337 338 339 341 343 343 344 341 338 339 338 338 341 341 342 342 341 341 343 342 342 342 343 343 343 344 344 343 343 343 346 346 343
350 351 351 352 353 352 349 350 346 336 336 337 338 338 338 339 339 340 340 339 336 341 339 340 343 343 341 338 340 341 341 341 340 341 343 342 343 343 343 345 342 343 342
350 351 352 353 354 351 349 350 346 335 335 336 340 340 339 339 339 338 338 340 343 343 343 344 342 342 341 341 340 340 338 335 338 340 339 342 341 341 342 342 343 343 341
351 351 353 354 351 349 349 349 346 337 335 338 340 342 340 341 341 342 342 343 342 339 340 339 339 339 339 340 340 341 339 340 340 340 340 340 340 341 340 342 342 342 342
351 352 354 348 347 350 350 349 347 339 335 338 341 343 341 340 342 339 340 340 339 339 338 338 338 339 338 338 341 341 341 342 343 341 341 341 340 341 342 342 341 342 342
351 353 355 352 348 349 350 349 345 336 336 344 343 339 341 341 341 342 342 341 339 335 338 340 340 340 340 340 340 339 339 340 341 342 342 342 341 343 344 343 341 342 342
351 354 356 353 350 349 351 347 341 338 340 345 346 340 343 340 341 343 343 339 334 335 337 339 342 342 342 341 340 341 342 342 342 341 342 342 342 344 341 341 341 340 340
Wind_Speed
18 16 17 16 17 17 17 16 16 16 15 15 16 16 15 14 14 12 10 10 12 12 10 10 8 9 10 10 9 8 10 12 14 15 16 15 15 15 16 16 13 14 14
21 19 17 16 15 15 15 15 16 15 15 15 13 13 13 13 12 12 12 10 10 10 9 10 11 10 12 10 10 11 14 16 15 16 15 14 13 13 14 15 14 14 15
21 19 18 16 15 15 15 15 16 15 15 14 13 14 13 11 11 10 10 11 11 10 10 11 10 10 10 11 13 15 17 17 16 14 12 12 12 12 13 15 14 14 14
20 19 18 17 15 14 14 14 15 14 14 12 12 13 11 10 10 11 10 10 11 10 8 9 10 10 11 13 14 17 19 17 17 15 11 11 11 10 11 14 14 13 14
19 17 17 17 16 14 13 13 13 13 12 11 10 11 11 11 12 10 9 9 9 9 8 8 9 10 13 15 16 17 19 16 16 13 13 10 9 9 9 11 11 11 12
18 17 16 16 15 13 13 13 13 12 12 11 10 9 9 9 9 7 6 6 7 9 8 9 9 11 13 16 17 16 12 10 11 12 12 11 8 7 6 8 9 10 11
16 16 16 15 14 13 13 13 12 12 11 12 11 10 8 8 7 6 5 6 7 6 7 8 11 11 13 15 14 15 11 10 9 9 9 8 6 4 4 6 7 8 9
15 15 14 14 13 12 12 12 12 11 11 10 10 10 10 10 8 6 6 6 6 6 6 7 9 12 13 13 13 12 12 10 8 8 8 6 5 4 3 5 5 6 7
15 14 13 12 12 12 11 11 11 11 10 9 9 8 8 9 8 7 5 5 5 5 5 5 7 10 12 13 14 13 11 8 4 5 4 6 3 4 2 4 5 5 6
12 11 11 11 11 11 10 10 10 10 10 9 8 8 8 7 8 7 6 7 7 5 5 5 5 7 11 12 14 13 12 8 6 6 5 4 1 1 1 4 5 5 6
12 12 12 10 10 9 8 9 9 9 9 9 9 8 9 8 7 7 7 8 7 6 6 5 5 6 8 11 14 15 13 10 8 8 6 4 4 2 1 4 5 5 6
13 11 9 8 8 9 9 9 9 10 10 10 10 10 10 10 11 8 8 7 5 5 6 6 6 6 7 9 12 15 16 14 11 10 6 5 4 3 4 3 5 6 6
10 10 8 8 7 7 9 9 7 9 11 12 12 12 11 12 13 9 8 8 7 6 6 7 6 5 6 8 12 15 16 16 14 12 9 9 7 6 5 5 5 7 8
12 9 9 8 6 4 8 7 10 8 10 13 11 12 12 14 13 9 7 6 7 6 5 4 5 3 6 8 11 15 16 16 17 17 13 11 8 6 8 7 7 8 8
14 12 12 8 5 4 5 6 8 13 13 13 16 16 13 14 12 9 5 7 11 8 6 5 6 6 7 9 11 13 13 12 14 17 15 12 10 9 9 11 9 9 9
15 15 14 11 7 5 6 8 9 12 15 17 20 20 19 18 14 12 7 9 10 11 9 8 9 10 7 10 13 13 13 15 12 16 15 13 11 9 10 10 9 11 10
17 16 16 11 9 6 8 10 12 15 18 19 18 20 19 18 17 16 12 13 11 10 12 12 13 14 16 16 20 20 17 17 14 13 14 13 13 13 13 11 10 8 9
17 18 16 12 11 9 8 10 11 15 14 13 13 16 21 18 16 13 13 11 9 9 12 13 13 15 18 19 16 16 19 17 15 15 14 15 16 16 17 14 15 13 9
16 18 18 14 12 9 9 8 10 11 9 4 1 4 12 13 15 14 10 8 10 14 14 14 14 14 8 5 9 12 17 17 15 13 17 18 17 20 19 18 16 14 14
16 18 18 14 13 12 11 8 5 6 7 6 6 4 6 12 16 15 13 13 12 11 11 10 10 9 6 10 8 10 14 14 13 15 17 19 19 18 19 21 19 22 21
19 20 17 17 15 12 10 8 5 1 3 4 5 5 4 7 15 17 17 13 12 10 10 10 9 7 10 14 11 12 8 11 13 14 15 16 20 24 24 21 22 20 21
23 20 17 17 15 9 9 8 6 4 3 3 4 4 4 5 6 8 9 10 11 9 7 8 8 10 8 5 7 7 7 10 10 13 15 17 20 22 22 23 23 22 19
26 20 18 12 10 10 10 9 8 6 7 5 4 5 6 6 6 7 6 6 8 8 9 10 12 13 10 9 10 9 3 2 1 5 6 8 12 17 22 20 22 22 19
27 23 20 14 16 11 10 10 8 8 10 7 5 6 6 6 7 5 4 5 7 9 11 12 13 13 14 13 13 14 14 14 8 7 11 10 8 9 13 15 14 18 21
29 30 29 18 11 11 11 9 9 9 11 9 7 7 6 4 4 3 2 5 8 9 10 10 11 11 11 10 11 12 15 16 16 17 16 12 7 4 8 11 11 10 11
30 33 21 3 1 11 9 8 10 10 11 10 9 8 7 4 5 4 5 9 8 6 6 7 9 8 8 8 8 9 11 13 12 16 15 12 6 1 3 7 8 9 8
Wind_Direction
168 166 154 153 149 149 147 143 138 132 129 128 126 127 128 136 138 137 134 132 133 133 135 129 124 125 126 122 132 122 124 125 129 122 117 117 114 113 121 127 125 117 119
161 163 160 155 146 146 149 146 145 140 138 134 128 127 126 126 131 137 134 132 133 126 123 124 126 127 125 128 130 127 123 120 120 121 120 122 119 123 120 127 123 125 120
161 162 162 159 151 152 154 152 153 149 148 141 134 134 130 128 132 138 134 132 128 126 126 128 129 132 130 134 132 130 121 123 125 118 112 121 116 114 119 126 122 125 125
163 163 160 162 159 158 157 157 157 154 154 146 141 140 136 129 128 134 137 132 126 125 128 134 135 138 134 136 136 137 130 123 125 115 100 124 121 110 121 130 130 128 132
165 162 163 165 166 164 163 161 162 159 156 154 148 146 143 144 133 124 113 116 123 128 132 120 136 142 137 136 138 143 142 127 124 116 101 103 121 109 121 133 128 135 134
164 167 167 169 171 171 167 168 170 168 159 163 160 156 149 151 153 154 144 139 124 128 138 122 128 142 146 145 142 143 146 138 130 124 112 103 94 99 116 135 138 139 142
165 171 174 174 175 175 172 173 176 176 172 168 170 167 165 165 162 166 150 146 148 144 130 138 131 143 152 156 154 149 149 137 133 133 127 112 103 100 120 142 142 145 147
170 174 178 178 179 179 178 176 179 181 182 181 175 177 174 171 167 167 150 151 155 155 151 142 143 147 161 172 171 161 152 154 140 141 141 118 118 90 137 158 161 155 159
177 177 179 183 184 185 186 182 181 185 190 191 186 187 185 169 163 161 164 144 155 158 156 156 150 156 166 177 187 184 172 173 161 151 145 154 141 103 155 174 189 183 172
179 180 182 190 195 191 191 192 190 193 196 200 198 192 188 189 168 164 164 158 162 161 160 171 162 162 168 180 188 195 186 179 177 170 168 162 154 113 270 201 197 205 200
174 185 189 192 200 199 193 195 198 201 203 203 201 197 186 189 186 173 169 165 156 156 164 170 175 172 182 182 191 197 200 186 182 183 179 190 219 228 296 228 215 219 223
180 178 183 187 201 207 202 200 203 206 206 202 198 194 190 188 182 181 174 159 174 173 174 175 184 178 196 195 190 198 203 199 200 207 202 194 203 246 264 260 230 222 229
186 190 182 174 191 222 210 202 213 221 213 205 202 197 194 191 193 207 213 215 200 212 199 189 193 191 205 205 192 200 203 207 212 218 220 223 227 260 255 263 254 230 231
206 202 200 194 204 220 198 217 239 238 222 211 208 206 212 198 201 186 214 201 209 223 205 185 187 227 252 234 212 197 201 208 215 223 226 242 231 259 260 266 254 245 238
215 211 211 211 218 232 244 253 266 257 253 257 248 237 233 225 215 210 222 234 225 225 227 239 247 260 279 247 211 204 198 204 216 219 229 235 237 260 267 256 250 247 244
218 222 218 220 214 246 270 288 287 288 281 273 250 237 240 229 232 216 238 222 234 245 244 263 260 254 272 242 227 223 224 220 228 215 219 239 249 255 254 253 260 254 242
229 224 226 232 222 246 266 273 292 292 288 280 265 245 233 232 231 248 240 233 247 255 259 260 261 261 259 266 249 242 225 214 217 217 224 247 249 255 243 250 251 278 252
232 226 226 232 228 228 262 277 287 310 309 285 276 254 231 236 233 218 225 233 246 260 271 260 255 268 264 288 226 223 219 226 227 228 238 248 245 249 245 247 245 263 270
232 228 223 232 232 228 255 278 298 340 2 32 317 204 206 207 204 208 214 237 271 279 271 265 249 287 255 257 224 225 227 236 236 238 244 248 259 247 245 248 252 255 260
227 226 227 231 227 235 248 259 286 350 33 55 70 120 193 202 207 216 228 259 268 266 265 262 269 265 251 245 246 240 242 242 244 244 251 256 260 252 248 251 248 254 252
222 219 225 226 229 244 262 262 241 307 73 76 88 107 136 211 219 228 242 242 247 251 253 255 250 259 276 243 260 248 246 248 251 260 258 261 255 254 253 254 248 253 251
221 218 223 228 232 246 256 244 226 196 165 110 106 110 133 135 155 180 202 222 240 240 250 256 258 259 249 236 249 267 271 252 248 254 257 255 251 250 253 250 251 251 252
217 220 220 230 249 257 255 248 229 209 185 164 157 154 158 164 174 191 205 222 240 261 267 267 264 261 259 256 262 250 259 227 155 253 251 260 270 256 247 248 247 251 250
218 221 213 197 230 254 256 248 242 227 199 189 181 185 186 190 186 199 203 244 268 276 270 262 259 260 258 260 255 251 254 256 265 276 268 250 292 287 243 240 248 248 251
220 220 215 216 180 241 242 230 236 220 195 194 179 200 204 194 186 211 299 312 302 283 269 260 250 248 253 255 253 252 252 251 249 245 262 272 297 285 242 234 239 253 233
226 231 220 223 137 252 239 232 226 207 203 200 187 193 212 245 232 237 290 304 307 284 256 233 237 241 244 245 246 245 243 242 245 233 231 237 231 132 237 234 217 223 236